Hayward, WI

9:18 AM CST on November 13, 2019 (GMT -0600)
Sawyer County

Weather History for KHYR - September, 2019

Change the Weather History Date:

Tuesday, September 3, 2019

  Actual Average Record
Temperature  
Mean Temperature 63 °F -  
Max Temperature 71 °F 71 °F 90 °F (2012)
Min Temperature 55 °F 46 °F 30 °F (1997)
Degree Days  
Heating Degree Days 2    
Growing Degree Days 13 (Base 50)    
Moisture  
Dew Point 56 °F    
Average Humidity 86    
Maximum Humidity 97    
Minimum Humidity 58    
Precipitation  
Precipitation 1.12 in - - ()
Sea Level Pressure  
Sea Level Pressure 29.82 in    
Wind  
Wind Speed 10 mph (WSW)    
Max Wind Speed 29 mph    
Max Gust Speed 45 mph    
Visibility 7 miles    
Events Rain , Thunderstorm    
Averages and records for this station are not official NWS values.
T = Trace of Precipitation, MM = Missing Value Source: NWS Daily Summary

Daily Weather History Graph

Daily Weather History Graph

Search for Another Location

Airport or City:

Astronomy

Sep. 03, 2019 Rise Set
Actual Time 6:28 AM CDT 7:40 PM CDT
Civil Twilight 5:57 AM CDT 8:11 PM CDT
Nautical Twilight 5:20 AM CDT 8:48 PM CDT
Astronomical Twilight 4:41 AM CDT 9:27 PM CDT
Moon 11:37 AM CDT (9/3) 10:20 PM CDT (9/3)
Length of Visible Light 14h 13m
Length of Day
13h 12m
Waxing Crescent, 25% of the Moon is Illuminated
Sep 3
Waxing Crescent
Sep 5
First Quarter
Sep 13
Full
Sep 21
Last Quarter
Sep 28
New

Hourly Weather History & Observations

Time (CDT) Temp. Dew Point Humidity Pressure Visibility Wind Dir Wind Speed Gust Speed Precip Events Conditions
12:04 AM 55.9 °F 54.0 °F 93% 29.93 in 1.0 mi NNE 15.0 mph 25.3 mph 0.15 in Rain , Thunderstorm Heavy Thunderstorms and Rain
12:14 AM 55.9 °F 54.0 °F 93% 29.92 in 1.0 mi NE 19.6 mph - 0.25 in Rain Heavy Rain
12:27 AM 55.9 °F 54.0 °F 93% 29.93 in 1.5 mi NE 8.1 mph 24.2 mph 0.34 in Rain Heavy Rain
12:37 AM 55.9 °F 55.0 °F 97% 29.92 in 0.8 mi Variable 3.5 mph - 0.47 in Rain Heavy Rain
12:53 AM 57.9 °F 55.9 °F 93% 29.72 in 1.2 mi East 28.8 mph 44.9 mph 0.62 in Rain Rain
1:02 AM 59.0 °F 55.9 °F 90% 29.74 in 3.0 mi East 17.3 mph 43.7 mph 0.01 in Rain Light Rain
1:32 AM 61.0 °F 57.9 °F 90% 29.79 in 10.0 mi SSE 10.4 mph 24.2 mph 0.01 in   Mostly Cloudy
1:53 AM 60.1 °F 57.0 °F 90% 29.80 in 10.0 mi SSW 15.0 mph 20.7 mph 0.01 in   Mostly Cloudy
2:04 AM 60.1 °F 57.0 °F 90% 29.82 in 10.0 mi SSW 11.5 mph - N/A   Scattered Clouds
2:53 AM 61.0 °F 57.0 °F 87% 29.79 in 9.0 mi Variable 3.5 mph - 0.00 in Rain Light Rain
3:34 AM 61.0 °F 57.0 °F 87% 29.77 in 10.0 mi Variable 3.5 mph - 0.01 in   Overcast
3:53 AM 61.0 °F 57.9 °F 90% 29.76 in 10.0 mi Calm Calm - 0.01 in Rain Light Rain
4:36 AM 61.0 °F 57.0 °F 87% 29.78 in 2.0 mi West 5.8 mph - 0.06 in Rain , Thunderstorm Thunderstorms and Rain
4:38 AM 60.1 °F 57.0 °F 90% 29.79 in 1.0 mi Variable 5.8 mph - 0.14 in Rain , Thunderstorm Heavy Thunderstorms and Rain
4:53 AM 59.0 °F 57.9 °F 96% 29.75 in 0.8 mi East 5.8 mph - 0.39 in Rain , Thunderstorm Heavy Rain
4:55 AM 59.0 °F 57.9 °F 96% 29.76 in 1.2 mi SE 5.8 mph - 0.00 in Rain , Thunderstorm Rain
4:59 AM 59.0 °F 57.9 °F 96% 29.75 in 3.0 mi SSE 6.9 mph - 0.00 in Rain , Thunderstorm Light Rain
5:06 AM 59.0 °F 57.9 °F 96% 29.74 in 10.0 mi Variable 5.8 mph - 0.00 in Rain Light Rain
5:53 AM 60.1 °F 57.0 °F 90% 29.72 in 10.0 mi SSE 4.6 mph - 0.00 in   Mostly Cloudy
6:04 AM 60.1 °F 57.0 °F 90% 29.72 in 10.0 mi South 5.8 mph - N/A   Overcast
6:26 AM 60.1 °F 57.0 °F 90% 29.71 in 1.8 mi South 4.6 mph - 0.04 in Rain Heavy Rain
6:36 AM 60.1 °F 57.0 °F 90% 29.71 in 3.0 mi SSW 5.8 mph - 0.06 in Rain Light Rain
6:53 AM 60.1 °F 57.9 °F 93% 29.70 in 10.0 mi South 4.6 mph - 0.06 in Rain Light Rain
7:00 AM 60.1 °F 57.9 °F 93% 29.69 in 10.0 mi SSW 5.8 mph - 0.00 in   Overcast
7:53 AM 61.0 °F 59.0 °F 93% 29.69 in 10.0 mi SW 4.6 mph - 0.00 in   Overcast
8:53 AM 62.1 °F 60.1 °F 93% 29.69 in 7.0 mi West 9.2 mph 17.3 mph N/A   Overcast
9:53 AM 62.1 °F 59.0 °F 90% 29.70 in 10.0 mi West 8.1 mph 20.7 mph N/A   Overcast
10:03 AM 62.1 °F 59.0 °F 90% 29.71 in 8.0 mi West 10.4 mph 23.0 mph N/A   Overcast
10:51 AM 62.6 °F 57.2 °F 82% 29.72 in 10.0 mi West 13.8 mph 25.3 mph 0.00 in Rain Light Rain
10:53 AM 62.1 °F 57.0 °F 84% 29.73 in 10.0 mi WNW 8.1 mph 25.3 mph 0.00 in Rain Light Rain
11:23 AM 63.0 °F 57.0 °F 81% 29.72 in 10.0 mi West 10.4 mph 17.3 mph 0.00 in   Overcast
11:53 AM 66.0 °F 57.0 °F 73% 29.72 in 10.0 mi WNW 9.2 mph 23.0 mph 0.00 in   Mostly Cloudy
12:53 PM 68.0 °F 57.0 °F 68% 29.72 in 10.0 mi North - - N/A   Overcast
1:53 PM 71.1 °F 55.9 °F 59% 29.73 in 10.0 mi Variable 6.9 mph 19.6 mph N/A   Mostly Cloudy
2:53 PM 69.1 °F 54.0 °F 58% 29.77 in 10.0 mi North - - N/A   Overcast
3:53 PM 66.9 °F 54.0 °F 63% 29.79 in 10.0 mi West 8.1 mph - N/A   Overcast
4:53 PM 66.0 °F 54.0 °F 65% 29.81 in 10.0 mi Variable 5.8 mph 24.2 mph N/A   Overcast
5:53 PM 64.9 °F 52.0 °F 63% 29.84 in 10.0 mi Variable 5.8 mph 23.0 mph N/A   Overcast
6:53 PM 62.1 °F 54.0 °F 75% 29.87 in 8.0 mi NW 6.9 mph - N/A   Overcast
7:20 PM 60.1 °F 55.0 °F 83% 29.88 in 5.0 mi North - - 0.00 in Rain Light Rain
7:34 PM 59.0 °F 55.0 °F 87% 29.89 in 4.0 mi North - - 0.00 in Rain Light Rain
7:53 PM 59.0 °F 55.0 °F 87% 29.90 in 5.0 mi Variable 4.6 mph - 0.00 in Rain Light Rain
8:34 PM 59.0 °F 55.0 °F 87% 29.91 in 10.0 mi Calm Calm - 0.00 in   Overcast
8:44 PM 59.0 °F 54.0 °F 83% 29.92 in 10.0 mi NW 8.1 mph 21.9 mph 0.00 in   Overcast
8:53 PM 59.0 °F 53.1 °F 81% 29.93 in 10.0 mi North - - 0.00 in   Overcast
9:53 PM 57.9 °F 52.0 °F 81% 29.95 in 10.0 mi Variable 5.8 mph - N/A   Overcast
10:32 PM 57.0 °F 52.0 °F 83% 29.97 in 2.5 mi NNW 8.1 mph - N/A   Haze
10:36 PM 55.9 °F 52.0 °F 87% 29.97 in 1.8 mi NNW 6.9 mph - 0.01 in Rain Light Rain
10:53 PM 55.9 °F 53.1 °F 90% 29.99 in 1.5 mi Variable 4.6 mph - 0.03 in Rain Light Rain
11:03 PM 55.9 °F 53.1 °F 90% 29.98 in 3.0 mi Variable 4.6 mph - 0.00 in Rain Light Rain
11:10 PM 55.9 °F 53.1 °F 90% 29.98 in 10.0 mi Variable 3.5 mph - 0.00 in   Overcast
11:48 PM 55.4 °F 51.8 °F 88% 30.00 in 10.0 mi North 8.1 mph - 0.00 in   Overcast
11:53 PM 55.0 °F 51.1 °F 86% 30.01 in 10.0 mi North 6.9 mph - 0.00 in   Overcast